Home   Weather   Doha   Past weeks

Flag for Qatar Past Weather in Doha, Qatar — Yesterday and Last 2 Weeks

Now
81 °F

Clear.


Feels Like: 82 °F
Forecast: 70 / 84 °F
Wind: 13 mph from Northwest

Location: Doha International Airport

Current Time: Dec 5, 2016 at 5:53:32 pm

Latest Report: Dec 5, 2016 at 5:00 pm


Visibility: 10 mi

Pressure: 30.01 "Hg

Humidity: 58%

Dew Point: 64 °F

Location of DohaLocation

Past Weather in Doha — Graph

°F

Doha Temperature Yesterday

Maximum temperature yesterday: 86 °F (at 1:00 pm)
Minimum temperature yesterday: 73 °F (at 2:00 am)
Average temperature yesterday: 78 °F

High & Low Weather Summary for the Past Weeks

 TemperatureHumidityPressure
High90 °F (Dec 3, 12:00 pm)100% (Dec 3, 3:00 am)30.15 "Hg (Dec 3, 3:00 am)
Low70 °F (Nov 26, 2:00 pm)40% (Nov 21, 12:00 pm)29.89 "Hg (Nov 20, 4:00 pm)
Average76 °F71%30.03 "Hg
* Reported Nov 20 4:00 pm — Dec 5 4:00 pm, Doha, Weather by CustomWeather, © 2016

Note: Actual official high and low records may vary slightly from our data, if they occured in-between our weather recording intervals... More about our weather records

Advertising

Doha Weather History for the Previous 24 Hours

Scroll right to see more
 ConditionsComfort  
Time TempWeatherWind HumidityBarometerVisibility
4:00 pm
Mon, Dec 5
82 °FSunny.16 mph51%30.01 "Hg10 mi
3:00 pm82 °FSunny.16 mph48%29.98 "Hg10 mi
2:00 pm84 °FSunny.16 mph51%30.01 "Hg10 mi
1:00 pm84 °FSunny.16 mph55%30.01 "Hg10 mi
12:00 pm82 °FSunny.16 mph62%30.04 "Hg10 mi
11:00 am81 °FPassing clouds.12 mph66%30.04 "HgN/A
10:00 am79 °FSunny.12 mph70%30.07 "Hg10 mi
9:00 am77 °FSunny.12 mph74%30.07 "Hg10 mi
8:00 am75 °FSunny.12 mph78%30.07 "Hg10 mi
7:00 am72 °FSunny.10 mph83%30.07 "Hg10 mi
6:00 am72 °FClear.8 mph83%30.07 "Hg10 mi
5:00 am72 °FClear.9 mph83%30.04 "Hg10 mi
4:00 am72 °FPassing clouds.10 mph83%30.04 "HgN/A
3:00 am73 °FPassing clouds.13 mph78%30.04 "HgN/A
2:00 am73 °FPassing clouds.13 mph78%30.04 "HgN/A
1:00 am73 °FPassing clouds.13 mph78%30.07 "HgN/A
12:00 am73 °FPassing clouds.10 mph78%30.07 "HgN/A
11:00 pm
Sun, Dec 4
73 °FClear.12 mph78%30.07 "Hg10 mi
10:00 pm75 °FPassing clouds.9 mph74%30.09 "HgN/A
9:00 pm75 °FPassing clouds.9 mph74%30.09 "HgN/A
8:00 pm75 °FPassing clouds.9 mph74%30.09 "HgN/A
7:00 pm75 °FPassing clouds.17 mph74%30.09 "HgN/A
6:00 pm77 °FPassing clouds.13 mph65%30.09 "HgN/A
5:00 pm79 °FPassing clouds.13 mph61%30.07 "HgN/A
Weather by CustomWeather, © 2016

See weather overviewHow to use our weather pages